FW2308 Weather Reports


time (UTC)temp
F
wind
direction
speed
knots
gust
knots
rain 1hr
in
rain 24hr
in
rain mn
in
humidity
%
barometer
mb
20260509000057 65 130 0.0 0.0 0.00 0.00 0.00 71 1014.0
20260508234605 66 130 0.0 0.0 0.00 0.00 0.00 67 1013.9
20260508233056 67 129 0.0 0.0 0.00 0.00 0.00 67 1013.5
20260508231558 67 129 0.0 0.0 0.00 0.00 0.00 65 1013.8
20260508230057 68 139 0.0 1.7 0.00 0.00 0.00 64 1013.6
20260508224557 68 167 0.0 1.7 0.00 0.00 0.00 63 1013.7
20260508223054 68 129 0.0 1.7 0.00 0.00 0.00 62 1014.0
20260508221553 69 135 0.0 2.6 0.00 0.00 0.00 61 1013.8
20260508220052 69 167 0.9 2.6 0.00 0.00 0.00 59 1013.7
20260508214604 69 170 0.0 3.5 0.00 0.00 0.00 57 1013.9
20260508213051 70 155 0.0 3.5 0.00 0.00 0.00 55 1013.5
20260508211549 70 68 0.9 3.5 0.00 0.00 0.00 56 1013.7
20260508210053 70 70 0.0 4.3 0.00 0.00 0.00 55 1013.9
20260508204550 70 119 0.9 2.6 0.00 0.00 0.00 56 1013.9
20260508203048 71 153 0.0 3.5 0.00 0.00 0.00 54 1013.8
20260508201547 70 110 0.9 4.3 0.00 0.00 0.00 53 1014.1
20260508200046 71 120 2.6 6.1 0.00 0.00 0.00 52 1014.4
20260508194546 71 309 0.0 4.3 0.00 0.00 0.00 55 1014.6
20260508193058 71 101 0.9 4.3 0.00 0.00 0.00 51 1014.9
20260508191551 71 90 0.9 3.5 0.00 0.00 0.00 52 1014.9
20260508184544 71 147 1.7 6.1 0.00 0.00 0.00 51 1015.3
20260508183056 71 282 0.9 4.3 0.00 0.00 0.00 53 1015.6
20260508181542 70 139 0.9 3.5 0.00 0.00 0.00 57 1016.0
20260508180056 70 56 1.7 5.2 0.00 0.00 0.00 57 1016.2
20260508174558 71 46 2.6 5.2 0.00 0.00 0.00 54 1016.1
20260508173039 72 54 0.9 3.5 0.00 0.00 0.00 49 1016.3
20260508171539 69 311 0.9 3.5 0.00 0.00 0.00 56 1016.6
20260508170043 71 48 2.6 5.2 0.00 0.00 0.00 52 1016.6
20260508164544 69 148 0.9 5.2 0.00 0.00 0.00 55 1016.8
20260508163036 68 80 0.9 5.2 0.00 0.00 0.00 54 1017.2
20260508161531 67 6 0.9 4.3 0.00 0.00 0.00 56 1017.5
20260508160031 66 100 1.7 6.1 0.00 0.00 0.00 57 1017.7
20260508154528 66 35 2.6 4.3 0.00 0.00 0.00 58 1017.9
20260508153033 66 59 1.7 6.1 0.00 0.00 0.00 65 1018.2
20260508151524 66 39 1.7 4.3 0.00 0.00 0.00 67 1018.4
20260508150023 65 156 0.0 2.6 0.00 0.00 0.00 65 1018.3
20260508144527 63 72 1.7 3.5 0.00 0.10 0.00 64 1018.2
20260508143016 62 40 1.7 4.3 0.00 0.10 0.00 70 1017.9
20260508141515 62 52 0.9 3.5 0.00 0.10 0.00 67 1018.2
20260508140022 62 47 3.5 5.2 0.00 0.10 0.00 69 1018.3
20260508134513 61 46 3.5 6.1 0.00 0.23 0.00 68 1018.4
20260508133010 61 32 4.3 7.0 0.00 0.23 0.00 69 1018.4
20260508131507 61 38 3.5 6.1 0.00 0.23 0.00 67 1018.2
20260508130002 61 46 1.7 5.2 0.00 0.43 0.00 70 1018.2
20260508124600 60 36 3.5 4.3 0.00 0.43 0.00 69 1018.0
20260508123115 60 42 3.5 6.1 0.00 0.43 0.00 67 1017.8
20260508121604 59 43 3.5 7.0 0.00 0.43 0.00 72 1017.5
20260508120106 58 49 1.7 4.3 0.00 0.43 0.00 74 1017.4
20260508114558 56 65 0.0 1.7 0.00 1.38 0.00 84 1017.2
20260508113056 55 153 0.0 1.7 0.00 1.38 0.00 91 1017.0
20260508111549 53 142 0.0 0.0 0.00 1.38 0.00 93 1016.7
20260508110044 51 142 0.0 0.0 0.00 1.38 0.00 93 1016.1
20260508104546 51 142 0.0 0.0 0.00 1.44 0.00 92 1015.8
20260508103054 51 142 0.0 0.0 0.00 1.44 0.00 92 1015.6
20260508101549 51 142 0.0 0.0 0.00 1.44 0.00 92 1015.5
20260508100037 51 142 0.0 0.0 0.00 1.44 0.00 92 1015.4
20260508094534 51 142 0.0 0.0 0.00 1.44 0.00 91 1015.0
20260508093038 52 142 0.0 0.0 0.00 1.44 0.00 91 1014.8
20260508091534 52 142 0.0 0.0 0.00 1.44 0.00 90 1014.8
20260508090028 52 142 0.0 0.0 0.00 1.44 0.00 90 1014.8
20260508084525 53 142 0.0 0.0 0.00 1.46 0.00 89 1014.6
20260508083024 54 142 0.0 0.0 0.00 1.46 0.00 89 1014.4
20260508081523 54 142 0.0 0.0 0.00 1.46 0.00 88 1014.5
20260508080022 54 142 0.0 0.0 0.00 1.46 0.00 87 1014.5
20260508074522 54 142 0.0 0.0 0.00 1.51 0.00 87 1014.2
20260508073022 54 142 0.0 0.0 0.00 1.51 0.00 88 1014.3
20260508071520 54 142 0.0 0.0 0.00 1.51 0.00 88 1014.2
20260508070017 53 300 0.0 0.0 0.00 1.51 0.00 87 1014.1
20260508064517 53 300 0.0 0.0 0.00 1.69 0.00 86 1014.1
20260508063015 54 300 0.0 0.0 0.00 1.69 0.00 85 1014.1
20260508061510 54 300 0.0 0.0 0.00 1.69 0.00 84 1014.1
20260508060008 55 300 0.0 0.0 0.00 1.69 0.00 82 1014.1
20260508054504 56 300 0.0 0.9 0.00 1.92 0.00 81 1014.0
20260508053003 57 300 0.0 0.9 0.00 1.92 0.00 81 1014.2
20260508051559 57 300 0.0 0.0 0.00 1.92 0.00 80 1014.2
20260508044557 58 302 0.0 0.0 0.00 2.06 0.00 79 1013.7
20260508043103 58 295 0.0 0.0 0.00 2.06 0.00 78 1013.9
20260508041559 59 295 0.0 0.0 0.00 2.06 0.00 76 1013.8
20260508040050 59 295 0.0 0.0 0.00 2.06 0.00 75 1013.7
20260508034548 60 309 0.0 0.0 0.00 2.29 2.06 74 1013.7
20260508033045 60 309 0.0 1.7 0.00 2.29 2.06 73 1013.5
20260508031543 61 300 0.0 0.9 0.00 2.29 2.06 72 1013.5
20260508030044 61 307 0.0 2.6 0.00 2.29 2.06 71 1013.5
20260508024541 61 292 0.0 0.9 0.00 2.50 2.06 70 1013.2
20260508023037 62 302 0.0 1.7 0.00 2.50 2.06 69 1013.1
20260508021536 62 294 0.0 1.7 0.00 2.50 2.06 68 1012.8
20260508020040 63 295 0.0 3.5 0.00 2.50 2.06 67 1012.7
20260508014531 63 307 0.0 3.5 0.00 2.75 2.06 67 1012.4
20260508013028 64 300 0.0 2.6 0.00 2.75 2.06 66 1012.1
20260508011529 64 296 0.0 2.6 0.00 2.75 2.06 65 1012.0
20260508010028 65 302 0.0 3.5 0.00 2.75 2.06 64 1011.7
20260508004526 66 299 0.0 1.7 0.00 3.64 2.06 64 1011.6
20260508003026 66 299 0.0 1.7 0.00 3.64 2.06 63 1011.3
20260508001544 67 302 0.0 3.5 0.00 3.64 2.06 61 1011.2